Location: Cafda Village
(34.0600°S, 18.4857°E)
Time: 06:39:21
(UTC+00:00)

Daily predictions for brighter satellites

Satellite Brightness Start Highest point End
(mag) Time Altitude Azimuth Time Altitude Azimuth Time Altitude Azimuth
NOAA 11 4.2 17:26:59 10° SSE 17:32:35 82° ENE 17:38:05 10° N
Cosmos 972 Rocket 4.1 17:28:48 10° S 17:33:44 53° ESE 17:38:30 10° NNE
Cosmos 2360 Rocket 2.5 17:30:18 10° S 17:35:53 50° ESE 17:41:23 10° NE
X-37B 1.4 17:33:38 10° NNW 17:36:33 33° NE 17:39:29 10° ESE
Cosmos 1869 4.5 17:33:44 10° SSE 17:36:57 24° ESE 17:40:07 10° NE
CZ-2C R/B 2.7 17:38:11 10° NNE 17:43:26 84° WNW 17:48:42 10° SSW
Cosmos 1745 Rocket 4.4 17:43:14 10° NNE 17:49:14 45° E 17:55:16 10° SSE
Cosmos 2058 3.6 17:48:03 10° NNE 17:51:49 34° E 17:55:39 10° SSE
CZ-2C R/B 4.5 17:47:59 10° NE 17:52:17 36° ESE 17:56:34 10° S
Cosmos 1892 2.9 17:49:07 10° NNE 17:52:52 50° E 17:56:39 10° SSE
Cosmos 1607 4.2 17:47:04 10° SSW 17:52:59 50° ESE 17:58:38 11° NE
USA 229 DEB 3.9 17:49:02 10° NNW 17:56:44 70° ENE 18:04:11 10° SE
USA 229 3.9 17:49:07 10° NNW 17:56:49 69° ENE 18:04:16 10° SE
Cosmos 1408 3.3 17:53:35 10° NNE 17:56:59 34° E 18:00:25 10° SSE
Okean O Rocket 4.5 17:55:57 10° SSW 17:59:30 23° WSW 18:03:01 10° WNW
YAOGAN 1 2.8 17:57:00 10° SSE 18:01:17 50° E 18:05:30 10° N
Cosmos 2219 Rocket 3.2 17:57:20 10° S 18:02:17 29° ESE 18:05:59 15° ENE
SL-8 R/B 4.2 18:01:56 10° NNW 18:06:18 36° NE 18:10:43 10° ESE
USA 281 3.3 18:02:53 10° SSE 18:09:32 83° WSW 18:16:06 10° NNW
CZ-2C R/B 3.3 18:04:23 10° SSE 18:09:56 63° E 18:15:39 10° N
USA 267 3.5 18:04:11 10° SE 18:10:48 75° SW 18:17:21 10° NW
NOSS 3-1 (A) 4.2 18:02:35 10° NNW 18:11:31 71° ENE 18:19:39 10° SE
Cosmos 468 Rocket 4.0 18:06:22 10° SSW 18:11:46 88° ESE 18:17:03 10° NNE
Cosmos 1346 Rocket 3.0 18:08:03 10° NNE 18:11:54 47° E 18:15:48 10° SSE
Cosmos 1825 2.8 18:11:13 14° NNE 18:14:03 34° E 18:17:33 10° SSE
Cosmos 2221 2.6 18:14:19 10° S 18:18:37 58° E 18:22:01 16° NNE
Cosmos 2322 Rocket 3.8 18:13:41 10° SW 18:18:45 33° WNW 18:23:46 10° NNW
Cosmos 1709 Rocket 4.4 18:13:09 10° NNE 18:19:03 43° E 18:24:57 10° SSE
CREW DRAGON DEMO-1 DEB 2.9 18:17:40 10° SW 18:20:43 71° NW 18:22:01 31° NNE
Cosmos 1763 Rocket 3.6 18:17:23 10° SSW 18:22:47 82° WNW 18:27:58 11° NNE
Cosmos 1842 Rocket 3.5 18:18:47 10° S 18:23:22 76° E 18:27:24 13° N
Helios 1A Rocket 3.7 18:21:35 10° S 18:25:41 55° WSW 18:29:46 10° NNW
Cosmos 2084 Rocket 4.4 18:21:58 10° S 18:25:48 31° SE 18:27:13 25° E
Cosmos 1340 4.0 18:22:55 10° NNW 18:26:32 42° W 18:30:12 10° S
Cosmos 968 Rocket 4.3 18:25:38 23° NE 18:27:18 28° E 18:31:39 10° SE
Cosmos 2297 Rocket 2.9 18:29:05 19° NNE 18:32:05 31° ENE 18:37:00 10° SE
Cosmos 1076 Rocket 3.4 18:27:46 10° N 18:32:05 77° E 18:36:31 10° S
Okean-O 3.5 18:28:50 10° S 18:33:13 53° WSW 18:37:33 10° NNW
Cosmos 921 Rocket 4.0 18:29:22 10° SSW 18:33:22 44° W 18:37:22 10° N
USA 186 3.8 18:30:47 10° SE 18:31:47 16° SE 18:31:47 16° SE
ARGOS 3.3 18:29:00 10° SSE 18:34:16 49° E 18:39:00 13° N
SL-08 RB Rocket 4.2 18:32:40 10° SSE 18:36:55 36° E 18:37:44 33° ENE
Cosmos 2322 3.6 18:31:52 10° SSW 18:37:38 85° ESE 18:41:17 23° NNE
H-2A R/B 3.9 18:40:57 37° E 18:41:38 40° ESE 18:45:33 10° S
CZ-4 R/B 3.0 18:38:31 10° S 18:42:26 38° WSW 18:46:14 10° NW
H-2A R/B 2.0 18:37:58 10° SSE 18:43:08 87° ENE 18:48:22 10° NNW
Ariane Rocket 4.1 18:39:04 10° SE 18:42:39 26° E 18:42:39 26° E
Cosmos 540 Rocket 3.4 18:38:38 10° SSW 18:43:53 77° ESE 18:46:25 31° NNE
Molniya-1 4.3 18:40:57 10° SSW 18:44:08 76° ESE 18:50:01 23° NE
Cosmos 1570 Rocket 4.0 18:41:46 10° SSW 18:47:08 75° ESE 18:49:36 33° NNE
Cosmos 1486 Rocket 4.1 18:44:44 23° NNE 18:47:47 49° ENE 18:52:52 10° SSE
Cosmos 841 Rocket 3.4 18:43:33 10° SSW 18:48:50 85° ESE 18:51:21 32° NNE
Timation 2 Rocket 4.1 18:44:33 10° NNW 18:51:24 72° ENE 18:58:07 10° SSE
CSL-04 Rocket 3.7 18:46:39 10° SSE 18:52:14 85° WSW 18:57:47 10° NNW
Cosmos 2208 Rocket 3.9 18:49:22 10° SSW 18:54:43 72° ESE 18:56:27 42° NE
Cosmos 1606 4.1 18:55:48 10° SSE 18:58:01 26° SE 18:58:01 26° SE
Meteor 2-3 Rocket 4.4 18:59:58 36° E 18:59:58 36° E 19:05:12 10° SSE
Milstar 3 Cent rocket 4.5 18:56:29 10° NNW 18:58:53 14° N 18:58:53 14° N
Cosmos 2219 3.1 18:56:39 10° N 19:02:18 66° ENE 19:07:58 10° SSE
COSMOS 2428 2.6 18:57:19 10° SSW 19:03:05 86° ESE 19:05:05 43° NNE
Cosmos 2333 Rocket 2.4 18:58:36 10° SSW 19:04:23 71° WNW 19:07:03 33° N
Cosmos 2237 Rocket 2.9 19:07:16 10° S 19:12:32 36° ESE 19:12:48 36° ESE
X-37B 2.4 19:10:19 10° W 19:13:11 29° SSW 19:13:30 29° SSW
Cosmos 2151 3.4 19:19:54 52° NW 19:20:38 62° W 19:24:55 10° S
Cosmos 1980 4.0 19:18:02 10° S 19:23:33 49° ESE 19:23:35 49° ESE
IRS-1A Rocket 4.2 19:22:44 10° SSE 19:28:42 73° ENE 19:29:13 68° NE
Orbus 7S? 4.2 19:25:59 10° SW 19:29:45 68° NW 19:30:26 61° N
Resurs 01 Rocket 4.1 19:30:48 10° SE 19:31:04 11° SE 19:31:04 11° SE
MOS 1 4.2 19:29:56 10° SSE 19:35:38 76° E 19:35:38 76° E
Cosmos 2227 Rocket 2.1 19:34:40 55° NNW 19:36:00 84° WSW 19:41:46 10° SSE
MetOp-A 4.0 19:32:42 10° SSE 19:38:07 89° SE 19:38:07 89° SE
SL-16 R/B 3.9 19:34:34 10° S 19:38:07 21° SE 19:38:07 21° SE
Cosmos 2219 Rocket 3.5 19:41:09 10° SW 19:46:09 32° WNW 19:47:44 28° NW
Cosmos 2184 Rocket 4.0 19:57:28 79° WNW 19:57:44 81° W 20:04:12 10° S
Cosmos 2297 Rocket 3.9 20:11:04 10° WNW 20:16:01 30° WSW 20:21:00 10° S
USA 234 3.4 20:24:50 72° SSW 20:24:50 72° SSW 20:30:43 10° SW
Cosmos 2237 Rocket 4.2 20:51:42 10° SW 20:54:39 22° WSW 20:54:39 22° WSW
SL-16 R/B 4.2 21:17:45 10° SSW 21:20:00 23° SW 21:20:00 23° SW
Cosmos 2263 Rocket 4.5 21:30:15 18° SSE 21:30:15 18° SSE 21:31:39 10° SSE
ATLAS 3B R/B 4.5 22:41:02 10° S 22:46:39 24° SE 22:47:06 24° SE
CZ-4C R/B 3.6 23:35:48 49° S 23:35:48 49° S 23:40:58 10° SSE
ADEOS II 4.2 23:45:03 23° SSE 23:45:03 23° SSE 23:47:19 10° S
COSMOS 2455 4.3 23:56:24 33° SSE 23:56:24 33° SSE 23:59:36 10° SSE
